Hourly Data Report for December 31, 2006

TORONTO CITY
ONTARIO

43°40'00.000" N
79°24'00.000" W
112.50 m
6158355
71508
XTO

Download Data

Hourly Data (December 2006)
Hourly Data Report for December 31, 2006
TIME
LST
Temp Definition
°C
Dew Point Definition
°C
Rel Hum Definition
%
Precip. Amount Definition
mm

Wind Dir Definition
10's deg

Wind Spd Definition
km/h
Visibility Definition
km
Stn Press Definition
kPa
Hmdx Definition


Wind Chill Definition


Weather Definition


00:00 -1.0 -2.3 91   LegendMM LegendMM   101.92     LegendNANA
01:00 -0.8 -2.3 90   LegendMM LegendMM   101.91     LegendNANA
02:00 -0.5 -2.3 88   LegendMM LegendMM   101.87     LegendNANA
03:00 -0.3 -2.3 86   LegendMM LegendMM   101.79     LegendNANA
04:00 -1.0 -2.8 88   LegendMM LegendMM   101.78     LegendNANA
05:00 -1.0 -2.8 88   LegendMM LegendMM   101.72     LegendNANA
06:00 0.4 -1.9 85   LegendMM LegendMM   101.72     LegendNANA
07:00 0.7 -1.3 86   LegendMM LegendMM   101.67     LegendNANA
08:00 1.5 -0.8 85   LegendMM LegendMM   101.60     LegendNANA
09:00 1.6 -1.3 81   LegendMM LegendMM   101.60     LegendNANA
10:00 1.9 -0.9 82   LegendMM LegendMM   101.56     LegendNANA
11:00 2.8 -1.1 75   LegendMM LegendMM   101.40     LegendNANA
12:00 2.9 -0.8 77   LegendMM LegendMM   101.23     LegendNANA
13:00 3.3 -0.7 75   LegendMM LegendMM   100.99     LegendNANA
14:00 3.0 -0.5 78   LegendMM LegendMM   100.84     LegendNANA
15:00 2.9 -0.1 81   LegendMM LegendMM   100.69     LegendNANA
16:00 3.3 0.5 82   LegendMM LegendMM   100.62     LegendNANA
17:00 3.7 0.8 81   LegendMM LegendMM   100.49     LegendNANA
18:00 3.8 1.2 83   LegendMM LegendMM   100.33     LegendNANA
19:00 3.7 2.1 89   LegendMM LegendMM   100.20     LegendNANA
20:00 3.4 3.0 97   LegendMM LegendMM   99.98     LegendNANA
21:00 3.6 3.4 99   LegendMM LegendMM   99.77     LegendNANA
22:00 3.8 3.5 98   LegendMM LegendMM   99.60     LegendNANA
23:00 4.2 3.9 98   LegendMM LegendMM   99.43     LegendNANA

Notes on Data Quality.

Legend

  • E = Estimated
  • M = Missing
  • NA = Not Available*
  • [empty] = Indicates an unobserved value
Date modified: